Retour au catalogue

ARIANE 2 DEB

ActifGTO
NORAD 33574·DEBRIS·🇫🇷 France

Lancé Jan 27, 1989 depuis Guiana Space Centre

Loading…

TLE

VieillissantSource: Space-Track

Époque: Sep 14, 2026, 19:04 UTC

1 33574U 89006BS  26257.79460102 -.00000399  00000-0 -40590-2 0  9999
2 33574   8.1743 107.7891 7124803  10.9440 217.7302  2.29514457171632

Suivez ARIANE 2 DEB en temps réel avec AllMySat

Download on the App Store